[[{"header":{"parameterUnit":"m.s-1","parameterCategory":2,"la1":30.2991,"la2":30.254,"lo1":-89.0895,"lo2":-89.0444,"dy":0.0017,"dx":0.0017,"nx":28,"ny":28,"refTime":"2024-07-18T03:00:00:Z","depth":"0","parameterNumber":2,"parameterNumberName":"U-component_of_CURRENTS"},"data":[0,0,0,0,0,0,0,0,0,0,0,0,0,0,0,0,0,0,0,0,0,0,0,0,0,0,0,0,0,0,0,0,0,0,0,0,0,0,0,0,0,0,0,0,0,0,0,0,0,0,0,0,0,0,0,0,0,0,0.3806,0.3807,0,0.3908,0.3909,0.3909,0.3892,0.3891,0.389,0.3889,0.3977,0.398,0.3984,0,0,0,0,0,0,0,0,0,0,0,0,0,0.3727,0.3727,0.3806,0.3808,0.3809,0.3908,0.3909,0.3909,0.3892,0.3891,0.3889,0.3888,0.3976,0.398,0.3984,0,0,0,0,0,0,0,0,0,0,0,0,0,0.3783,0.3727,0.3805,0.3817,0.3819,0.3908,0.3909,0.391,0.3893,0.3891,0.3889,0.3887,0.3974,0.398,0.3985,0.4055,0,0,0.4001,0.4003,0,0,0,0,0,0,0,0,0.3779,0.3785,0.3814,0.3816,0.3819,0.3891,0.3914,0.396,0.3893,0.3859,0.3888,0.3886,0.3952,0.3959,0.3974,0.4059,0.4062,0.4001,0.4004,0.4007,0.4008,0,0,0,0,0,0,0,0.3775,0.3781,0.384,0.3816,0.3819,0.3863,0.3866,0.3923,0.391,0.3862,0.3862,0.3883,0.3952,0.3969,0.3976,0.4064,0.4001,0.4006,0.4009,0.4011,0.4256,0.4259,0,0,0,0,0,0,0.377,0.3777,0.3837,0.3844,0.3801,0.3865,0.387,0.3865,0.391,0.3916,0.3885,0.3882,0.3961,0.397,0.3979,0.4115,0.4007,0.4012,0.4015,0.4252,0.4257,0.426,0,0,0,0,0,0,0.3767,0.3773,0.3833,0.3819,0.383,0.3868,0.3864,0.3868,0.3894,0.3928,0.3933,0.3907,0.396,0.3972,0.4048,0.4116,0.4014,0.4019,0.4249,0.4254,0.4258,0.4353,0,0,0,0,0,0,0.3764,0.3771,0.377,0.3818,0.3831,0.3904,0.3866,0.3872,0.3912,0.391,0.395,0.3955,0.3959,0.404,0.4053,0.4121,0.4023,0.4244,0.4251,0.4257,0.4346,0.4361,0.4374,0,0,0,0,0,0.376,0.3775,0.3768,0.3777,0.3826,0.3907,0.3918,0.3935,0.3915,0.3946,0.397,0.3954,0.4089,0.4048,0.4062,0.4133,0.4241,0.4249,0.4256,0.434,0.4358,0.4374,0,0,0,0,0,0,0.3753,0.3777,0.377,0.3792,0.3852,0.3906,0.3939,0.3951,0.3994,0.3984,0.3999,0.4009,0.4104,0.4109,0.4063,0.4223,0.4164,0.4174,0.4222,0.424,0.4253,0.428,0.4027,0,0,0,0,0,0.3749,0.3754,0.3804,0.3827,0.3854,0.3898,0.3932,0.3947,0.3993,0.4008,0.4034,0.4075,0.4149,0.4182,0.4233,0.4324,0.4357,0.4379,0.4393,0.4405,0.4438,0.4564,0.4593,0.4285,0.4285,0.4285,0,0,0.3752,0.377,0.3772,0.3826,0.3864,0.393,0.3912,0.3974,0.4035,0.4016,0.4093,0.4127,0.4185,0.4283,0.4326,0.4294,0.4504,0.4414,0.4424,0.4451,0.4576,0.4606,0.4632,0.429,0.4289,0.4288,0,0,0.3783,0.378,0.3801,0.3855,0.3922,0.396,0.3983,0.4044,0.4074,0.4158,0.417,0.425,0.4329,0.4399,0.4443,0.4572,0.4575,0.458,0.4676,0.4798,0.4825,0.4848,0.4899,0.4926,0.4586,0.4586,0.4586,0,0.379,0.3822,0.3832,0.3888,0.3949,0.3978,0.4053,0.4102,0.4179,0.4237,0.4191,0.4364,0.4396,0.4565,0.4605,0.4608,0.4651,0.4602,0.4817,0.4842,0.4865,0.491,0.494,0.4592,0.4591,0.459,0.459,0,0.384,0.3885,0.3918,0.3983,0.405,0.4125,0.4199,0.4262,0.429,0.4345,0.4488,0.4533,0.4641,0.4667,0.4678,0.4871,0.4837,0.4819,0.4771,0.4901,0.4941,0.497,0.4599,0.4597,0.4596,0.4594,0,0,0.3819,0.3928,0.3942,0.4003,0.4112,0.4177,0.4293,0.4428,0.452,0.4575,0.4713,0.4829,0.4842,0.4897,0.4921,0.5024,0.5202,0.4996,0.5,0.504,0.5438,0.5231,0.5242,0.5226,0.5232,0.5238,0.5388,0,0.3868,0.3982,0.4031,0.417,0.4247,0.4331,0.4444,0.4561,0.4648,0.4778,0.4859,0.4981,0.4934,0.4992,0.5097,0.5187,0.5289,0.5161,0.5313,0.5317,0.5114,0.5273,0.497,0.5064,0.5416,0.5421,0.5425,0,0.3903,0.3984,0.4118,0.4282,0.4323,0.441,0.4607,0.4712,0.49,0.4968,0.5097,0.5147,0.5319,0.5244,0.5463,0.5383,0.5436,0.5479,0.5485,0.5287,0.5166,0.5,0.5103,0.4991,0.5469,0.5465,0.5462,0,0.3896,0.4049,0.4161,0.4217,0.4397,0.4487,0.459,0.4773,0.4883,0.5097,0.5185,0.5363,0.545,0.5573,0.5628,0.5581,0.584,0.5778,0.564,0.5623,0.5392,0.5343,0.5401,0.5965,0.5965,0.5964,0.5964,0,0.3945,0.4031,0.4162,0.4235,0.4376,0.4497,0.466,0.4797,0.499,0.5121,0.5271,0.5385,0.5545,0.5677,0.5723,0.5756,0.5917,0.57,0.5679,0.5408,0.5361,0.5269,0.5233,0.597,0.5969,0.5967,0.5966,0,0.3937,0.4021,0.4156,0.4334,0.438,0.4486,0.467,0.4786,0.4971,0.5151,0.5223,0.5453,0.5598,0.5715,0.591,0.5842,0.5744,0.5893,0.5519,0.5449,0.5128,0.5106,0.5001,0.4862,0.5758,0.5754,0.5751,0,0.3942,0.401,0.4192,0.4256,0.434,0.4476,0.4566,0.476,0.4868,0.5156,0.5235,0.5451,0.5526,0.5705,0.5666,0.5703,0.5628,0.5445,0.5296,0.5107,0.5073,0.4924,0.4806,0.5029,0.502,0.5013,0.5007,0,0.3968,0.4031,0.4149,0.4265,0.4364,0.4447,0.4579,0.4654,0.487,0.4991,0.5139,0.5228,0.5353,0.5232,0.5284,0.5277,0.5142,0.5289,0.5238,0.4634,0.4342,0.4194,0.49,0.4942,0.4949,0.4954,0.4957,0.496,0.3977,0.4052,0.4186,0.4263,0.4349,0.4388,0.4374,0.45,0.4597,0.4684,0.4899,0.4884,0.487,0.4855,0.4833,0.4598,0.4667,0.4435,0.4466,0.4366,0.4098,0.4615,0.4532,0.4536,0.4539,0.4542,0.4545,0,0.3959,0.405,0.4157,0.4232,0.4209,0.4282,0.4336,0.4251,0.4225,0.4377,0.4401,0.4308,0.4181,0.419,0.4019,0.3834,0.3683,0.3744,0.3518,0.3477,0.4068,0.3899,0.3498,0.3498,0.3498,0.3498,0.3499,0.3499,0.3981,0.4048,0.4075,0.4024,0.403,0.3907,0.3856,0.3781,0.3802,0.3691,0.3603,0.364,0.3748,0.3674,0.3484,0.3386,0.3196,0.2948,0.3073,0.3534,0.3602,0.3667,0.3502,0.3024,0.3024,0.2274,0.2268,0.2264]},{"header":{"parameterUnit":"m.s-1","parameterCategory":2,"la1":30.2991,"la2":30.254,"lo1":-89.0895,"lo2":-89.0444,"dy":0.0017,"dx":0.0017,"nx":28,"ny":28,"refTime":"2024-07-18T03:00:00:Z","depth":"0","parameterNumber":3,"parameterNumberName":"V-component_of_CURRENTS"},"data":[0,0,0,0,0,0,0,0,0,0,0,0,0,0,0,0,0,0,0,0,0,0,0,0,0,0,0,0,0,0,0,0,0,0,0,0,0,0,0,0,0,0,0,0,0,0,0,0,0,0,0,0,0,0,0,0,0,0,-0.0013,-0.0013,0,-0.0086,-0.0087,-0.0088,-0.0125,-0.0125,-0.0125,-0.0126,-0.0222,-0.0224,-0.0227,0,0,0,0,0,0,0,0,0,0,0,0,0,0.0064,0.0063,-0.0012,-0.0013,-0.0014,-0.0086,-0.0087,-0.0088,-0.0125,-0.0125,-0.0125,-0.0126,-0.0221,-0.0224,-0.0227,0,0,0,0,0,0,0,0,0,0,0,0,0,0.0015,0.0063,-0.0012,-0.0042,-0.0045,-0.0086,-0.0087,-0.0088,-0.0125,-0.0125,-0.0126,-0.0126,-0.022,-0.0223,-0.0227,-0.0248,0,0,-0.0239,-0.024,0,0,0,0,0,0,0,0,0.0018,0.0012,-0.0037,-0.004,-0.0044,-0.0097,-0.0095,-0.0143,-0.0125,-0.0094,-0.0126,-0.0126,-0.0182,-0.0189,-0.0202,-0.0253,-0.0257,-0.0239,-0.0241,-0.0243,-0.0244,0,0,0,0,0,0,0,0.0021,0.0015,-0.0041,-0.0038,-0.0042,-0.0063,-0.0069,-0.0105,-0.0137,-0.0097,-0.01,-0.0109,-0.0184,-0.0198,-0.0204,-0.0258,-0.0239,-0.0242,-0.0244,-0.0246,-0.0322,-0.0322,0,0,0,0,0,0,0.0031,0.0018,-0.0039,-0.0043,-0.0013,-0.0064,-0.0071,-0.008,-0.0136,-0.0145,-0.0109,-0.0111,-0.0192,-0.02,-0.0208,-0.0213,-0.0243,-0.0246,-0.0248,-0.0322,-0.0322,-0.0322,0,0,0,0,0,0,0.0033,0.0027,-0.0036,-0.0015,-0.0024,-0.0065,-0.0074,-0.0081,-0.0091,-0.0145,-0.0154,-0.0111,-0.0192,-0.0203,-0.0232,-0.0218,-0.0248,-0.0251,-0.0322,-0.0322,-0.0322,-0.0237,0,0,0,0,0,0,0.0036,0.0028,0.0028,-0.0014,-0.0025,-0.0049,-0.0074,-0.0082,-0.0097,-0.01,-0.015,-0.016,-0.0193,-0.0226,-0.0235,-0.0223,-0.0254,-0.0323,-0.0322,-0.0322,-0.024,-0.0234,-0.0229,0,0,0,0,0,0.0039,0.0039,0.0029,0.0022,-0.0024,-0.0049,-0.0056,-0.0086,-0.0097,-0.0096,-0.0131,-0.0158,-0.023,-0.0229,-0.024,-0.0229,-0.0323,-0.0322,-0.0322,-0.0243,-0.0235,-0.0229,0,0,0,0,0,0,0.0068,0.0034,0.0022,0.0011,-0.0012,-0.0055,-0.0059,-0.0079,-0.0107,-0.0107,-0.0157,-0.0169,-0.019,-0.0223,-0.022,-0.0251,-0.028,-0.0282,-0.0216,-0.021,-0.0204,-0.0153,-0.0257,0,0,0,0,0,0.0076,0.0071,0.0035,0.0028,0.0019,-0.0017,-0.0031,-0.0048,-0.008,-0.0092,-0.0128,-0.0166,-0.0198,-0.0213,-0.0249,-0.0265,-0.0249,-0.0266,-0.026,-0.0255,-0.0222,-0.0185,-0.0172,-0.032,-0.032,-0.032,0,0,0.0084,0.0066,0.0062,0.0035,0.0015,0.0013,-0.0025,-0.0037,-0.0036,-0.0099,-0.0108,-0.015,-0.0199,-0.0216,-0.0228,-0.024,-0.0205,-0.0254,-0.0249,-0.0218,-0.0183,-0.0168,-0.0155,-0.032,-0.032,-0.032,0,0,0.0103,0.0085,0.009,0.0079,0.0057,0.0038,0.0038,0.0002,-0.0009,-0.0026,-0.0069,-0.009,-0.0149,-0.0168,-0.0189,-0.0171,-0.0178,-0.0198,-0.0123,-0.0088,-0.0075,-0.0062,-0.0016,-0.0,-0.0192,-0.0191,-0.0191,0,0.0117,0.0117,0.0088,0.0095,0.0096,0.0055,0.0069,0.005,0.001,0.0018,-0.0016,-0.006,-0.0116,-0.0109,-0.0113,-0.0154,-0.0131,-0.0144,-0.0076,-0.0064,-0.0052,-0.0008,0.0008,-0.0187,-0.0188,-0.0188,-0.0189,0,0.0141,0.0146,0.015,0.015,0.0147,0.0152,0.0128,0.0128,0.0109,0.0096,0.0098,0.0037,0.0025,-0.0013,-0.0065,-0.002,-0.0028,-0.0072,-0.0083,-0.0031,0.0011,0.0026,-0.0181,-0.0183,-0.0184,-0.0185,0,0,0.0168,0.0169,0.0173,0.0197,0.0181,0.0191,0.02,0.021,0.0253,0.0206,0.0266,0.0184,0.0172,0.0149,0.0091,0.0102,0.0175,0.0051,0.0051,0.0118,0.0274,0.0201,0.021,0.0146,0.0149,0.0151,0.0275,0,0.0201,0.0236,0.0224,0.0271,0.0292,0.0278,0.0303,0.0312,0.0313,0.036,0.0318,0.0342,0.0228,0.0243,0.0234,0.0195,0.022,0.0147,0.0197,0.0199,0.0145,0.0227,0.0186,0.0287,0.029,0.0292,0.0294,0,0.0234,0.0258,0.0304,0.0359,0.0371,0.0401,0.047,0.0488,0.0528,0.0537,0.0556,0.0531,0.0544,0.0444,0.0439,0.0401,0.0355,0.0316,0.0319,0.024,0.0155,0.0232,0.0315,0.0134,0.0318,0.0316,0.0315,0,0.0283,0.0323,0.037,0.0383,0.0428,0.0473,0.0511,0.0554,0.0618,0.0678,0.0756,0.0733,0.0784,0.071,0.0599,0.0543,0.0605,0.0519,0.042,0.0415,0.0386,0.0372,0.032,0.0545,0.0544,0.0544,0.0544,0,0.0328,0.0374,0.0409,0.0442,0.0548,0.0551,0.068,0.0708,0.0801,0.0935,0.0873,0.0993,0.0857,0.0856,0.071,0.0626,0.0699,0.0474,0.0453,0.041,0.0397,0.0239,0.0125,0.0549,0.0548,0.0547,0.0546,0,0.0381,0.0387,0.0463,0.0533,0.0573,0.0658,0.0809,0.0914,0.0972,0.1158,0.1201,0.124,0.1245,0.1085,0.1001,0.0809,0.059,0.0648,0.0605,0.0574,0.0266,0.0158,0.0098,0.0017,0.0579,0.0578,0.0577,0,0.0412,0.0447,0.0548,0.0629,0.0675,0.0805,0.0918,0.0998,0.1129,0.1328,0.1448,0.1508,0.1575,0.1397,0.1075,0.0837,0.0638,0.0616,0.0476,0.0279,0.0145,0.0054,-0.0016,0.0487,0.0485,0.0484,0.0483,0,0.0489,0.0519,0.0596,0.0753,0.0883,0.1027,0.1197,0.132,0.1458,0.1627,0.1847,0.1917,0.1744,0.1483,0.1102,0.0904,0.045,0.0582,0.0406,0.0101,-0.0022,-0.012,0.0378,0.0472,0.0474,0.0474,0.0475,0.0475,0.057,0.0648,0.0755,0.0912,0.1058,0.1243,0.1385,0.1577,0.1806,0.2057,0.2116,0.2247,0.1821,0.1302,0.0997,0.0389,0.0401,0.018,0.0085,0.0027,-0.0121,0.0348,0.0376,0.0377,0.0377,0.0378,0.0378,0,0.0685,0.0775,0.0919,0.1104,0.1273,0.1323,0.1572,0.1724,0.2004,0.2233,0.2407,0.2267,0.1741,0.1198,0.0366,-0.0055,-0.02,-0.0261,-0.0392,-0.0425,0.0033,-0.0047,-0.0144,-0.0144,-0.0143,-0.0143,-0.0143,-0.0143,0.0758,0.091,0.0976,0.1254,0.1388,0.161,0.1746,0.1969,0.2162,0.2419,0.2496,0.2516,0.2074,0.0656,-0.0299,-0.0505,-0.0756,-0.084,-0.0936,-0.0645,-0.0611,-0.0579,-0.0681,-0.0909,-0.091,-0.1363,-0.1367,-0.1371]}],[{"header":{"parameterUnit":"m.s-1","parameterCategory":2,"la1":30.2991,"la2":30.254,"lo1":-89.0895,"lo2":-89.0444,"dy":0.0017,"dx":0.0017,"nx":28,"ny":28,"refTime":"2024-07-18T03:00:00:Z","depth":"2","parameterNumber":2,"parameterNumberName":"U-component_of_CURRENTS"},"data":[0,0,0,0,0,0,0,0,0,0,0,0,0,0,0,0,0,0,0,0,0,0,0,0,0,0,0,0,0,0,0,0,0,0,0,0,0,0,0,0,0,0,0,0,0,0,0,0,0,0,0,0,0,0,0,0,0,0,0.3017,0.3018,0,0.3014,0.3014,0.3013,0.2991,0.2991,0.2991,0.2991,0.3014,0.3015,0.3015,0,0,0,0,0,0,0,0,0,0,0,0,0,0.3019,0.3018,0.3017,0.3018,0.3018,0.3015,0.3014,0.3013,0.2991,0.2991,0.2991,0.2991,0.3014,0.3015,0.3015,0,0,0,0,0,0,0,0,0,0,0,0,0,0.301,0.3018,0.3017,0.3012,0.3012,0.3015,0.3014,0.3013,0.2991,0.2991,0.2991,0.2991,0.3014,0.3015,0.3015,0.3016,0,0,0.3018,0.3018,0,0,0,0,0,0,0,0,0.301,0.3009,0.3012,0.3013,0.3013,0.301,0.3023,0.3018,0.2991,0.2991,0.2991,0.2991,0.302,0.302,0.3008,0.3017,0.3018,0.3018,0.3018,0.3018,0.3019,0,0,0,0,0,0,0,0.3011,0.3009,0.3008,0.3013,0.3014,0.3017,0.3014,0.3021,0.2999,0.2991,0.2991,0.3003,0.3019,0.3007,0.3009,0.3018,0.3018,0.3018,0.3019,0.3019,0.3072,0.3073,0,0,0,0,0,0,0.3025,0.301,0.3009,0.3009,0.3021,0.3017,0.3014,0.3004,0.2998,0.3,0.3003,0.3002,0.3006,0.3008,0.301,0.3095,0.3018,0.3019,0.3019,0.3071,0.3072,0.3073,0,0,0,0,0,0,0.3025,0.3024,0.3009,0.3017,0.3016,0.3017,0.3006,0.3004,0.3011,0.3008,0.3008,0.3014,0.3006,0.3009,0.304,0.3092,0.3019,0.302,0.307,0.3071,0.3073,0.3211,0,0,0,0,0,0,0.3024,0.3023,0.3029,0.3017,0.3016,0.3031,0.3007,0.3004,0.3021,0.302,0.3019,0.3019,0.3006,0.3039,0.304,0.3092,0.3021,0.3069,0.3071,0.3072,0.3205,0.3217,0.3227,0,0,0,0,0,0.3024,0.3032,0.3028,0.303,0.302,0.3033,0.3032,0.3029,0.3021,0.3032,0.3035,0.302,0.3051,0.3041,0.3042,0.3095,0.3068,0.307,0.3072,0.32,0.3215,0.3227,0,0,0,0,0,0,0.3037,0.3031,0.3027,0.3032,0.3043,0.3032,0.3044,0.3042,0.3049,0.3052,0.3039,0.3041,0.3099,0.3062,0.3051,0.311,0.3055,0.3057,0.3151,0.3165,0.3175,0.3225,0.3021,0,0,0,0,0,0.3044,0.3045,0.3046,0.3054,0.3059,0.3054,0.3061,0.3062,0.3067,0.3068,0.3072,0.3073,0.3104,0.3107,0.3123,0.3147,0.3164,0.3175,0.3186,0.3196,0.3235,0.3325,0.3349,0.3081,0.308,0.308,0,0,0.305,0.3051,0.3051,0.3059,0.3058,0.3077,0.3056,0.3077,0.3104,0.3073,0.3109,0.3128,0.3123,0.3169,0.3187,0.3146,0.3271,0.3199,0.3208,0.3242,0.333,0.3357,0.3381,0.3082,0.3082,0.3081,0,0,0.3063,0.3064,0.3067,0.3081,0.3101,0.3108,0.3122,0.3127,0.314,0.318,0.318,0.3229,0.3238,0.3262,0.3272,0.3345,0.3345,0.3336,0.3421,0.3508,0.3532,0.3554,0.358,0.3603,0.3321,0.3321,0.3322,0,0.3075,0.308,0.3076,0.3091,0.3116,0.3127,0.3152,0.3169,0.3191,0.323,0.3209,0.3296,0.3292,0.3378,0.3409,0.3379,0.3411,0.3378,0.3529,0.3551,0.3571,0.3592,0.3617,0.3328,0.3328,0.3327,0.3326,0,0.3082,0.3105,0.3114,0.3136,0.3161,0.3192,0.322,0.3257,0.3284,0.332,0.3421,0.343,0.3481,0.3488,0.3479,0.3615,0.3585,0.3556,0.351,0.3608,0.3621,0.3644,0.3338,0.3336,0.3334,0.3332,0,0,0.3067,0.3111,0.3118,0.3143,0.3194,0.3212,0.3279,0.3354,0.3412,0.3467,0.3565,0.3633,0.3662,0.3675,0.3671,0.3747,0.3903,0.3725,0.3726,0.3775,0.4079,0.3903,0.391,0.3921,0.3927,0.3931,0.4021,0,0.3082,0.3121,0.3147,0.3208,0.3233,0.3283,0.3355,0.343,0.3484,0.3582,0.3656,0.3759,0.372,0.3775,0.3846,0.3905,0.3976,0.388,0.3955,0.3956,0.3812,0.3935,0.3614,0.3656,0.4042,0.4046,0.4049,0,0.3078,0.3115,0.3172,0.326,0.3278,0.3328,0.3441,0.3506,0.3651,0.3716,0.3826,0.3884,0.4024,0.3977,0.4127,0.4076,0.4105,0.4134,0.4137,0.3953,0.3825,0.3623,0.3682,0.4086,0.4083,0.4081,0.4078,0,0.3059,0.3132,0.3186,0.3212,0.3315,0.3368,0.3436,0.3558,0.363,0.3825,0.3901,0.4056,0.4144,0.4235,0.4257,0.4237,0.4403,0.4358,0.4222,0.4207,0.3936,0.3887,0.4499,0.4499,0.4499,0.4499,0.4498,0,0.306,0.3096,0.3186,0.3215,0.3309,0.3378,0.3488,0.3584,0.373,0.3843,0.3972,0.4063,0.4232,0.4309,0.433,0.4323,0.4448,0.4283,0.4247,0.3964,0.3919,0.429,0.4264,0.4502,0.4501,0.45,0.45,0,0.3007,0.3074,0.3138,0.3255,0.33,0.3363,0.3502,0.357,0.3726,0.3868,0.3957,0.4132,0.4248,0.4316,0.4465,0.4386,0.4421,0.4383,0.4006,0.3925,0.415,0.4131,0.4279,0.4274,0.427,0.4266,0.4264,0,0.2981,0.303,0.3142,0.3191,0.3243,0.3346,0.3421,0.3578,0.3631,0.3874,0.3923,0.4115,0.4168,0.4255,0.4231,0.4228,0.4338,0.3908,0.3814,0.4192,0.4143,0.4129,0.4116,0.3498,0.3489,0.3482,0.3476,0,0.2963,0.3013,0.3064,0.3146,0.3224,0.3312,0.3407,0.342,0.3612,0.3693,0.3796,0.3877,0.3991,0.3847,0.3856,0.3813,0.3883,0.3757,0.4302,0.3585,0.3459,0.3408,0.3421,0.3411,0.3418,0.3422,0.3426,0.3428,0.2951,0.2966,0.3036,0.3088,0.3182,0.3218,0.3189,0.3266,0.3311,0.3353,0.3548,0.3532,0.3599,0.3435,0.3322,0.3249,0.3522,0.3367,0.3389,0.342,0.3295,0.3167,0.3039,0.3043,0.3047,0.305,0.3053,0,0.2902,0.2909,0.2963,0.2987,0.2986,0.3112,0.3128,0.3033,0.2942,0.3083,0.3112,0.2884,0.2789,0.2855,0.264,0.2621,0.2609,0.2517,0.248,0.2547,0.2605,0.2439,0.1956,0.1953,0.1949,0.1946,0,0,0.2868,0.2858,0.2841,0.2774,0.2795,0.2726,0.2684,0.2593,0.2594,0.2491,0.247,0.2685,0.2779,0.2339,0.2273,0.2076,0.2298,0.1996,0.2882,0.2907,0.2962,0.3106,0.2926,0,0,0,0,0]},{"header":{"parameterUnit":"m.s-1","parameterCategory":2,"la1":30.2991,"la2":30.254,"lo1":-89.0895,"lo2":-89.0444,"dy":0.0017,"dx":0.0017,"nx":28,"ny":28,"refTime":"2024-07-18T03:00:00:Z","depth":"2","parameterNumber":3,"parameterNumberName":"V-component_of_CURRENTS"},"data":[0,0,0,0,0,0,0,0,0,0,0,0,0,0,0,0,0,0,0,0,0,0,0,0,0,0,0,0,0,0,0,0,0,0,0,0,0,0,0,0,0,0,0,0,0,0,0,0,0,0,0,0,0,0,0,0,0,0,0.0103,0.0103,0,0.007,0.007,0.007,0.0045,0.0044,0.0044,0.0044,-0.0006,-0.0007,-0.0008,0,0,0,0,0,0,0,0,0,0,0,0,0,0.0139,0.0139,0.0103,0.0103,0.0102,0.007,0.007,0.007,0.0045,0.0044,0.0044,0.0044,-0.0006,-0.0007,-0.0008,0,0,0,0,0,0,0,0,0,0,0,0,0,0.0118,0.0139,0.0103,0.0086,0.0084,0.007,0.007,0.007,0.0045,0.0044,0.0044,0.0044,-0.0005,-0.0007,-0.0008,-0.0009,0,0,-0.0013,-0.0014,0,0,0,0,0,0,0,0,0.0119,0.0116,0.0089,0.0087,0.0084,0.0061,0.0064,0.0042,0.0045,0.006,0.0044,0.0043,0.0014,0.0011,0.0007,-0.0011,-0.0014,-0.0013,-0.0014,-0.0015,-0.0015,0,0,0,0,0,0,0,0.012,0.0118,0.0091,0.0088,0.0086,0.0077,0.0074,0.006,0.0041,0.0059,0.0057,0.0052,0.0013,0.0009,0.0006,-0.0014,-0.0013,-0.0015,-0.0016,-0.0016,-0.0022,-0.0022,0,0,0,0,0,0,0.0124,0.0119,0.0092,0.009,0.01,0.0077,0.0073,0.0069,0.0041,0.0036,0.0053,0.0051,0.0012,0.0008,0.0004,0.0018,-0.0015,-0.0016,-0.0017,-0.0023,-0.0022,-0.0021,0,0,0,0,0,0,0.0125,0.0122,0.0093,0.0103,0.0099,0.0077,0.0073,0.0069,0.0066,0.0036,0.0031,0.0053,0.0011,0.0006,0.0001,0.0015,-0.0017,-0.0019,-0.0024,-0.0023,-0.0022,0.0036,0,0,0,0,0,0,0.0126,0.0122,0.0123,0.0103,0.0098,0.0094,0.0073,0.0069,0.0063,0.0061,0.0035,0.003,0.0011,0.0004,-0.0001,0.0013,-0.002,-0.0025,-0.0023,-0.0022,0.0033,0.0039,0.0044,0,0,0,0,0,0.0127,0.0131,0.0123,0.012,0.0099,0.0094,0.0092,0.0075,0.0063,0.0069,0.0052,0.0031,0.001,0.0003,-0.0002,0.0011,-0.0026,-0.0024,-0.0022,0.0031,0.0038,0.0044,0,0,0,0,0,0,0.0145,0.0128,0.0119,0.0117,0.011,0.009,0.0092,0.0079,0.0071,0.0069,0.004,0.0034,0.0031,0.0016,0.0009,0.0014,-0.0011,-0.001,0.0031,0.0037,0.0043,0.0073,-0.0021,0,0,0,0,0,0.015,0.0151,0.0133,0.0133,0.0131,0.0113,0.0108,0.0099,0.0087,0.0082,0.0064,0.0048,0.0035,0.0033,0.0016,0.0023,0.0005,0.0028,0.0034,0.0038,0.006,0.0048,0.0055,-0.0015,-0.0015,-0.0016,0,0,0.0155,0.0148,0.0147,0.0138,0.013,0.0143,0.011,0.011,0.0126,0.0079,0.0092,0.0062,0.0039,0.0043,0.0042,0.0034,0.0045,0.0041,0.0045,0.0064,0.0051,0.0058,0.0064,-0.0014,-0.0015,-0.0015,0,0,0.0177,0.0163,0.0175,0.0176,0.0171,0.0165,0.0167,0.0153,0.0152,0.0156,0.0126,0.0113,0.0094,0.0086,0.0078,0.0107,0.0068,0.0094,0.0153,0.0141,0.0147,0.0152,0.012,0.0122,0.0104,0.0104,0.0104,0,0.0186,0.0201,0.0178,0.0197,0.0212,0.018,0.021,0.0203,0.019,0.0202,0.017,0.0153,0.0121,0.014,0.0142,0.0121,0.0099,0.0129,0.0149,0.0154,0.0158,0.0124,0.0125,0.0107,0.0107,0.0107,0.0106,0,0.022,0.0237,0.0247,0.0265,0.0276,0.0296,0.029,0.0299,0.0287,0.0279,0.0286,0.0241,0.0239,0.0215,0.0184,0.0203,0.0171,0.015,0.0134,0.0169,0.013,0.013,0.0112,0.011,0.011,0.0109,0,0,0.0237,0.0266,0.0273,0.0313,0.0321,0.0345,0.037,0.0396,0.0435,0.0395,0.044,0.0389,0.036,0.035,0.0305,0.0286,0.0273,0.0235,0.0232,0.0206,0.0231,0.0181,0.0176,0.0252,0.0253,0.0254,0.0186,0,0.0278,0.0341,0.034,0.0417,0.0458,0.0455,0.0494,0.0512,0.0512,0.0541,0.049,0.0506,0.0414,0.0421,0.0382,0.031,0.028,0.0293,0.02,0.0198,0.0152,0.0178,0.0203,0.0143,0.0186,0.0186,0.0186,0,0.0317,0.0364,0.044,0.0527,0.0546,0.0585,0.0666,0.0696,0.0712,0.0715,0.0704,0.066,0.0631,0.0549,0.0439,0.045,0.035,0.0278,0.0274,0.0214,0.015,0.0119,0.0142,0.0186,0.0186,0.0186,0.0186,0,0.0369,0.0443,0.0517,0.0542,0.0617,0.0668,0.0715,0.0753,0.0813,0.0836,0.0877,0.081,0.0804,0.0675,0.0495,0.048,0.036,0.0325,0.0182,0.0176,0.0177,0.017,0.0253,0.0253,0.0253,0.0253,0.0253,0,0.0424,0.0491,0.0554,0.0603,0.0721,0.0745,0.0867,0.09,0.0965,0.1059,0.0977,0.1021,0.0837,0.0734,0.0553,0.0362,0.0401,0.0204,0.0166,0.0194,0.0189,0.0213,0.021,0.025,0.0251,0.0252,0.0252,0,0.0478,0.0504,0.0611,0.0709,0.0749,0.0842,0.0983,0.1074,0.1112,0.1233,0.1255,0.1195,0.1065,0.0844,0.0637,0.0457,0.027,0.0186,0.0216,0.0182,0.008,0.008,0.0051,0.0049,0.0047,0.0046,0.0045,0,0.051,0.0564,0.0697,0.0777,0.0831,0.0964,0.1066,0.1146,0.1249,0.1341,0.141,0.1324,0.1264,0.0915,0.0604,0.0292,0.0245,0.0101,0.0081,0.0099,0.0064,0.0067,0.007,0.0093,0.0092,0.0092,0.0091,0,0.0591,0.0631,0.0732,0.0887,0.1009,0.1155,0.1303,0.1392,0.1497,0.1575,0.1636,0.1591,0.1288,0.0972,0.0546,0.0335,0.0153,0.0079,0.0113,0.0136,0.0132,0.01,0.0102,0.0086,0.0086,0.0087,0.0087,0.0087,0.0663,0.0748,0.0871,0.1022,0.1161,0.1322,0.1432,0.1568,0.1707,0.1802,0.177,0.1692,0.1377,0.0822,0.0467,0.0103,0.013,-0.0009,-0.0004,0.0001,0.0015,0.0007,-0.0061,-0.0061,-0.0062,-0.0062,-0.0062,0,0.0757,0.0852,0.0997,0.1174,0.1318,0.1381,0.1576,0.1662,0.1789,0.1865,0.1876,0.1556,0.1219,0.0848,0.0316,-0.0001,-0.0012,-0.0114,-0.005,-0.0042,-0.0036,-0.0022,-0.0109,-0.011,-0.0111,-0.0112,0,0,0.0817,0.0963,0.103,0.1265,0.1384,0.156,0.1654,0.1763,0.1839,0.1859,0.1814,0.1742,0.132,0.0922,0.05,0.0193,0.0144,0.0127,0.02,0.0333,0.0343,0.006,0.0093,0,0,0,0,0]}],[{"header":{"parameterUnit":"m.s-1","parameterCategory":2,"la1":30.2991,"la2":30.254,"lo1":-89.0895,"lo2":-89.0444,"dy":0.0017,"dx":0.0017,"nx":28,"ny":28,"refTime":"2024-07-18T03:00:00:Z","depth":"4","parameterNumber":2,"parameterNumberName":"U-component_of_CURRENTS"},"data":[0,0,0,0,0,0,0,0,0,0,0,0,0,0,0,0,0,0,0,0,0,0,0,0,0,0,0,0,0,0,0,0,0,0,0,0,0,0,0,0,0,0,0,0,0,0,0,0,0,0,0,0,0,0,0,0,0,0,0.1872,0.1872,0,0.1874,0.1874,0.1874,0.1913,0.1914,0.1915,0.1916,0.1957,0.1957,0.1957,0,0,0,0,0,0,0,0,0,0,0,0,0,0.1865,0.1865,0.1872,0.1872,0.1872,0.1874,0.1874,0.1874,0.1913,0.1914,0.1916,0.1917,0.1956,0.1957,0.1957,0,0,0,0,0,0,0,0,0,0,0,0,0,0.1867,0.1865,0.1872,0.1892,0.1894,0.1874,0.1874,0.1874,0.1913,0.1914,0.1916,0.1917,0.1956,0.1957,0.1957,0.1928,0,0,0.1957,0.1958,0,0,0,0,0,0,0,0,0.1867,0.1868,0.1889,0.1891,0.1893,0.1895,0.1886,0.1894,0.1913,0.1906,0.1916,0.1918,0.1938,0.194,0.1937,0.193,0.1931,0.1957,0.1958,0.1958,0.1958,0,0,0,0,0,0,0,0.1867,0.1868,0.1873,0.1889,0.1891,0.1888,0.189,0.1887,0.1914,0.1906,0.1909,0.1909,0.194,0.1936,0.1938,0.1932,0.1957,0.1958,0.1958,0.1958,0.202,0.2022,0,0,0,0,0,0,0.1867,0.1867,0.1873,0.1873,0.1883,0.1887,0.1889,0.1893,0.1913,0.1918,0.1908,0.1911,0.1935,0.1938,0.194,0.2011,0.1958,0.1958,0.1958,0.2019,0.202,0.2022,0,0,0,0,0,0,0.1867,0.1868,0.1873,0.187,0.1871,0.1886,0.1889,0.1892,0.1928,0.1914,0.192,0.1945,0.1936,0.1939,0.1971,0.2009,0.1958,0.1958,0.2017,0.2019,0.2021,0.2087,0,0,0,0,0,0,0.1867,0.1868,0.189,0.187,0.1871,0.1884,0.1887,0.1891,0.1923,0.1928,0.1947,0.195,0.1938,0.197,0.1971,0.2009,0.1958,0.2015,0.2018,0.2021,0.2083,0.2091,0.2099,0,0,0,0,0,0.1866,0.1877,0.1891,0.1893,0.1894,0.1885,0.1886,0.1901,0.1924,0.194,0.1958,0.1952,0.199,0.1971,0.1972,0.201,0.2013,0.2017,0.202,0.2079,0.209,0.2098,0,0,0,0,0,0,0.1884,0.1882,0.1896,0.1908,0.1912,0.1893,0.1913,0.1922,0.1948,0.1971,0.1963,0.1966,0.2011,0.1999,0.198,0.2038,0.2004,0.2007,0.2049,0.2058,0.2066,0.2083,0.1958,0,0,0,0,0,0.1898,0.1914,0.1905,0.1922,0.1928,0.1931,0.1939,0.1949,0.1957,0.1973,0.1987,0.2004,0.2016,0.2031,0.2037,0.2062,0.2079,0.209,0.2098,0.2105,0.212,0.2185,0.2201,0.2033,0.2033,0.2033,0,0,0.1911,0.1913,0.1924,0.1929,0.1938,0.1938,0.1941,0.1964,0.1979,0.1971,0.2019,0.2034,0.203,0.2063,0.2082,0.2064,0.216,0.2109,0.2115,0.2126,0.219,0.2207,0.2221,0.2036,0.2035,0.2035,0,0,0.192,0.1948,0.1958,0.1962,0.1979,0.1975,0.1991,0.2,0.2029,0.2061,0.2067,0.2112,0.2124,0.2135,0.2137,0.2192,0.2201,0.22,0.2252,0.2316,0.233,0.2343,0.2382,0.2398,0.2203,0.2203,0.2203,0,0.1942,0.194,0.196,0.1963,0.1971,0.1996,0.2001,0.2022,0.2047,0.208,0.2091,0.2157,0.2158,0.22,0.2222,0.2212,0.2244,0.2215,0.2327,0.2341,0.2353,0.2389,0.2406,0.2206,0.2206,0.2206,0.2205,0,0.1936,0.195,0.1957,0.197,0.1989,0.1997,0.2022,0.2067,0.2111,0.2133,0.2214,0.2231,0.2278,0.2283,0.2268,0.2355,0.2348,0.2331,0.2305,0.2374,0.2407,0.2424,0.2211,0.221,0.2209,0.2208,0,0,0.1931,0.1948,0.1954,0.1965,0.1994,0.2004,0.2055,0.2095,0.2151,0.2207,0.2283,0.2321,0.2369,0.2376,0.2384,0.2435,0.2543,0.2429,0.2431,0.2469,0.2683,0.2495,0.2494,0.2556,0.2559,0.2562,0.267,0,0.1918,0.1919,0.1939,0.1958,0.1957,0.2012,0.2053,0.2114,0.2181,0.2265,0.2328,0.2404,0.2391,0.2445,0.2495,0.2535,0.2591,0.2515,0.2608,0.2611,0.2437,0.2508,0.2573,0.2682,0.2686,0.2688,0.269,0,0.1886,0.1895,0.1904,0.195,0.1963,0.1999,0.2098,0.2141,0.226,0.2322,0.2425,0.2485,0.2586,0.257,0.269,0.2649,0.2682,0.2703,0.2707,0.2521,0.2453,0.2599,0.272,0.2717,0.2715,0.2713,0.2711,0,0.1835,0.1867,0.1879,0.1889,0.1948,0.2006,0.2065,0.2176,0.2238,0.2393,0.2471,0.2586,0.2682,0.2744,0.2801,0.277,0.2922,0.2876,0.2736,0.2723,0.2831,0.2816,0.2973,0.2973,0.2973,0.2973,0.2972,0,0.177,0.1783,0.1873,0.187,0.1935,0.2003,0.2098,0.2177,0.231,0.2395,0.2519,0.261,0.2741,0.2836,0.2854,0.2844,0.2973,0.2761,0.2745,0.2854,0.284,0.2843,0.2826,0.2977,0.2976,0.2975,0.2974,0,0.168,0.1727,0.1749,0.1847,0.1901,0.1957,0.2112,0.2172,0.2315,0.2441,0.2507,0.2678,0.2791,0.2877,0.2992,0.2901,0.2913,0.2881,0.3005,0.2991,0.2658,0.2644,0.2722,0.2716,0.2711,0.2707,0.2704,0,0.1623,0.1619,0.1734,0.1781,0.1837,0.1946,0.2016,0.2163,0.2231,0.2458,0.2504,0.2691,0.2783,0.2785,0.2881,0.2896,0.286,0.2841,0.2728,0.2659,0.2637,0.263,0.2622,0.2697,0.2695,0.2694,0.2693,0,0.1513,0.1568,0.1591,0.1696,0.1786,0.1859,0.1984,0.2022,0.2195,0.2353,0.245,0.2514,0.2631,0.2688,0.2726,0.2729,0.2831,0.2791,0.2799,0.2693,0.2629,0.261,0.2608,0.2676,0.2679,0.268,0.2681,0,0.1444,0.145,0.1511,0.159,0.1689,0.1741,0.182,0.1911,0.1994,0.224,0.2281,0.2458,0.2627,0.2605,0.2642,0.2625,0.2568,0.2461,0.2485,0.2504,0.2377,0.2261,0.2195,0,0,0,0,0,0.1379,0.1376,0.1418,0.1475,0.1558,0.1635,0.1777,0.1858,0.2045,0.2056,0.2157,0.2253,0.2314,0.2404,0.2339,0.2527,0.2568,0.2437,0.2455,0.2585,0.2604,0.247,0,0,0,0,0,0,0.1337,0.1363,0.1365,0.1358,0.1392,0.1471,0.1562,0.1692,0.1704,0.1911,0.1957,0.2107,0.2197,0.233,0.2296,0.2318,0.2278,0.2545,0.2539,0.2575,0.2592,0.2607,0.2476,0,0,0,0,0]},{"header":{"parameterUnit":"m.s-1","parameterCategory":2,"la1":30.2991,"la2":30.254,"lo1":-89.0895,"lo2":-89.0444,"dy":0.0017,"dx":0.0017,"nx":28,"ny":28,"refTime":"2024-07-18T03:00:00:Z","depth":"4","parameterNumber":3,"parameterNumberName":"V-component_of_CURRENTS"},"data":[0,0,0,0,0,0,0,0,0,0,0,0,0,0,0,0,0,0,0,0,0,0,0,0,0,0,0,0,0,0,0,0,0,0,0,0,0,0,0,0,0,0,0,0,0,0,0,0,0,0,0,0,0,0,0,0,0,0,0.0117,0.0117,0,0.0107,0.0107,0.0107,0.0098,0.0097,0.0097,0.0097,0.0076,0.0076,0.0075,0,0,0,0,0,0,0,0,0,0,0,0,0,0.0128,0.0128,0.0117,0.0117,0.0116,0.0107,0.0107,0.0107,0.0098,0.0097,0.0097,0.0097,0.0076,0.0076,0.0075,0,0,0,0,0,0,0,0,0,0,0,0,0,0.0122,0.0128,0.0117,0.011,0.011,0.0107,0.0107,0.0107,0.0098,0.0097,0.0097,0.0097,0.0077,0.0076,0.0075,0.0076,0,0,0.0073,0.0073,0,0,0,0,0,0,0,0,0.0122,0.0121,0.0111,0.0111,0.011,0.0103,0.0103,0.0096,0.0098,0.0103,0.0097,0.0097,0.0084,0.0083,0.0082,0.0075,0.0074,0.0073,0.0073,0.0073,0.0073,0,0,0,0,0,0,0,0.0122,0.0122,0.0113,0.0111,0.011,0.0108,0.0107,0.0102,0.0095,0.0102,0.0102,0.01,0.0083,0.0083,0.0082,0.0074,0.0073,0.0073,0.0073,0.0072,0.0083,0.0084,0,0,0,0,0,0,0.0123,0.0122,0.0114,0.0113,0.0115,0.0108,0.0107,0.0106,0.0095,0.0093,0.01,0.0099,0.0084,0.0082,0.0081,0.0104,0.0073,0.0072,0.0072,0.0083,0.0083,0.0084,0,0,0,0,0,0,0.0123,0.0122,0.0114,0.0117,0.0116,0.0108,0.0107,0.0106,0.0108,0.0093,0.0091,0.0104,0.0084,0.0082,0.0088,0.0102,0.0072,0.0071,0.0082,0.0083,0.0084,0.0135,0,0,0,0,0,0,0.0124,0.0123,0.0125,0.0117,0.0115,0.012,0.0107,0.0106,0.0107,0.0106,0.0096,0.0094,0.0083,0.0089,0.0087,0.01,0.0071,0.0081,0.0082,0.0083,0.0132,0.0137,0.0142,0,0,0,0,0,0.0124,0.0129,0.0125,0.0124,0.0118,0.012,0.012,0.0114,0.0107,0.0114,0.011,0.0094,0.0095,0.0089,0.0087,0.01,0.008,0.0082,0.0083,0.013,0.0136,0.0142,0,0,0,0,0,0,0.0134,0.0128,0.0124,0.0126,0.0126,0.0119,0.0124,0.0118,0.0119,0.012,0.0104,0.0102,0.011,0.0099,0.0093,0.0107,0.0084,0.0086,0.0121,0.0126,0.0131,0.0138,0.007,0,0,0,0,0,0.0137,0.0141,0.0134,0.0138,0.0139,0.0132,0.0132,0.013,0.0128,0.0129,0.0121,0.0116,0.0114,0.0116,0.011,0.0121,0.0085,0.0127,0.0132,0.0136,0.0141,0.0093,0.0094,0.0089,0.0089,0.0089,0,0,0.0141,0.014,0.0141,0.0141,0.014,0.0157,0.0132,0.0139,0.0158,0.0126,0.0148,0.013,0.0119,0.0131,0.0134,0.0126,0.0118,0.0138,0.0142,0.0144,0.0095,0.0095,0.0095,0.009,0.009,0.009,0,0,0.0159,0.0152,0.0164,0.0171,0.0174,0.0175,0.0179,0.0176,0.018,0.0195,0.0176,0.0168,0.0171,0.0164,0.0162,0.0189,0.0141,0.0186,0.0221,0.0176,0.0175,0.0175,0.0127,0.0121,0.0193,0.0193,0.0193,0,0.0166,0.0185,0.0169,0.0189,0.0206,0.0187,0.0218,0.0218,0.022,0.0225,0.0211,0.02,0.0188,0.0198,0.0209,0.02,0.0162,0.0202,0.0181,0.0179,0.0178,0.0129,0.0122,0.0196,0.0196,0.0195,0.0195,0,0.0196,0.0218,0.0228,0.0252,0.0265,0.0288,0.0291,0.03,0.0298,0.0292,0.0293,0.0268,0.0261,0.0254,0.0243,0.0232,0.0204,0.0187,0.0165,0.0181,0.0129,0.0121,0.02,0.0199,0.0198,0.0197,0,0,0.0204,0.0244,0.025,0.0287,0.0307,0.0327,0.0355,0.0376,0.0393,0.0374,0.0388,0.0371,0.0338,0.0333,0.0305,0.0267,0.0222,0.0229,0.0225,0.0179,0.0113,0.0112,0.0102,0.0195,0.0195,0.0194,0.008,0,0.0241,0.0302,0.0309,0.0381,0.0419,0.0422,0.0451,0.0462,0.0458,0.046,0.0418,0.0417,0.0375,0.0371,0.0325,0.0248,0.0204,0.0255,0.0106,0.0102,0.0097,0.0094,0.0191,0.0073,0.0071,0.007,0.0069,0,0.0272,0.0318,0.0392,0.0464,0.0479,0.0516,0.0565,0.0589,0.0573,0.0563,0.0536,0.0493,0.0447,0.0405,0.0273,0.0304,0.0218,0.0148,0.0142,0.0118,0.0086,0.0054,0.0054,0.0055,0.0056,0.0057,0.0058,0,0.0304,0.038,0.045,0.0475,0.054,0.0579,0.0614,0.0621,0.0648,0.0628,0.0628,0.0552,0.0524,0.0401,0.0264,0.0264,0.0102,0.0083,-0.0003,-0.0005,0.0007,0.0009,-0.0015,-0.0015,-0.0015,-0.0015,-0.0014,0,0.0346,0.0407,0.0476,0.0519,0.0607,0.0632,0.0704,0.0716,0.0728,0.0757,0.0686,0.0677,0.052,0.0412,0.0274,0.0112,0.0106,0.0,-0.0033,0.0031,0.0037,0.0,0.0004,-0.0019,-0.0018,-0.0017,-0.0016,0,0.0375,0.0414,0.0506,0.0593,0.0627,0.0693,0.078,0.0818,0.082,0.0854,0.0853,0.0766,0.0627,0.0455,0.0253,0.0141,-0.0022,-0.0078,0.0003,-0.0024,-0.0105,-0.0097,-0.0189,-0.019,-0.019,-0.0191,-0.0192,0,0.0393,0.0443,0.0562,0.0621,0.067,0.0765,0.0821,0.0862,0.0904,0.0908,0.0923,0.0813,0.0732,0.0445,0.0256,-0.0013,-0.0047,-0.0137,-0.0121,-0.0098,-0.0122,-0.0113,-0.0105,-0.0193,-0.0193,-0.0193,-0.0194,0,0.0434,0.0475,0.0552,0.067,0.0754,0.0849,0.0939,0.0974,0.1014,0.1016,0.0982,0.0843,0.0684,0.0458,0.0251,0.0058,-0.0084,-0.0147,-0.0146,-0.0132,-0.0105,-0.0126,-0.0117,-0.0196,-0.0196,-0.0196,-0.0196,0,0.0461,0.0516,0.0608,0.0719,0.0816,0.0904,0.0955,0.1008,0.1047,0.1052,0.1037,0.0869,0.0776,0.0494,0.0301,0.0113,0.0064,0.0,-0.0008,-0.0007,0.008,0.0143,0.0098,0,0,0,0,0,0.0487,0.055,0.0647,0.0759,0.0852,0.0916,0.1015,0.1051,0.109,0.1077,0.1064,0.092,0.0647,0.0525,0.0337,0.0267,0.0017,0.0038,-0.0064,-0.0212,-0.0209,-0.0137,0,0,0,0,0,0,0.0504,0.0592,0.0646,0.0768,0.0844,0.0948,0.1015,0.1048,0.1046,0.1056,0.0915,0.0862,0.0593,0.0751,0.0329,0.0272,0.0179,-0.0085,-0.0089,-0.0214,-0.0211,-0.0208,-0.0134,0,0,0,0,0]}]]